Tracking 34223 objects as of 31-May-2026
HD Live streaming from Space Station
objects crossing your sky now

EUTELSAT 7C

Track EUTELSAT 7C now!
EUTELSAT 7C is classified as:


NORAD ID: 44334
Int'l Code: 2019-034B
Perigee: 35,779.8 km
Apogee: 35,807.9 km
Inclination: 0.1 °
Period: 1,436.1 minutes
Semi major axis: 42164 km
RCS: Unknown
Launch date: June 20, 2019
Source: European Telecommunications Satellite Organization (EUTE)
Launch site: FRENCH GUIANA (FRGUI)
Your satellite tracking list
Your tracking list is empty




NASA's NSSDC Master Catalog

Two Line Element Set (TLE):
1 44334U 19034B   26151.14619663  .00000061  00000-0  00000+0 0  9992
2 44334   0.0759 174.5623 0003325 239.2119 254.5090  1.00271394  6669
Source of the keplerian elements: AFSPC